[[{"header":{"parameterUnit":"m.s-1","parameterCategory":1,"la1":30.2992,"la2":30.254,"lo1":-89.0895,"lo2":-89.0443,"dy":0.0025,"dx":0.0025,"nx":19,"ny":19,"refTime":"2026-03-14T03:00:00:Z","depth":0,"parameterNumber":2,"parameterNumberName":"U-component_of_WINDS"},"data":[0,0,0,1.2288,1.2291,1.2398,1.2398,1.2531,1.2533,0,0,0,0,0,0,0,0,0,0,0,1.2254,1.2254,1.2288,1.2291,1.2398,1.2398,1.2531,1.2533,0,0,0,0,0,0,0,0,0,0,0,1.2253,1.2254,1.2255,1.2291,1.2398,1.2398,1.2531,1.2452,0,0,0,0,0,0,0,0,0,0,1.2348,1.2313,1.2254,1.2255,1.2292,1.2398,1.2399,1.2448,1.2457,1.2481,0,1.2502,0,1.2519,1.2541,1.2542,0,0,0,1.2293,1.2306,1.2337,1.2255,1.2293,1.2398,1.235,1.2453,1.2463,1.2492,1.2503,1.2509,1.2521,1.2542,1.2543,1.2674,1.2674,0,0,1.2287,1.2272,1.2331,1.2344,1.2326,1.2347,1.2354,1.2459,1.247,1.2504,1.2512,1.2523,1.2543,1.2544,1.2673,1.2674,0,0,0,1.2269,1.2267,1.2296,1.2338,1.2358,1.235,1.2358,1.2465,1.2476,1.2513,1.2525,1.2544,1.2545,1.2673,1.2674,1.2682,0,0,0,1.2265,1.2257,1.2294,1.2285,1.2356,1.2413,1.2362,1.2469,1.2481,1.2524,1.2544,1.2546,1.2672,1.2673,1.2681,1.2689,0,0,0,1.2248,1.2255,1.2269,1.2284,1.233,1.2411,1.2428,1.2472,1.2488,1.2542,1.2547,1.2672,1.2673,1.268,1.2687,1.2718,0,0,0,1.2225,1.2276,1.2269,1.2331,1.2329,1.2416,1.2428,1.2494,1.2541,1.2544,1.2672,1.2673,1.2679,1.2686,1.2717,1.2741,1.275,0,0,1.2281,1.2283,1.232,1.2317,1.2401,1.2401,1.2487,1.2546,1.2565,1.2637,1.264,1.2681,1.2687,1.2718,1.2806,1.2813,0,0,0,1.2333,1.236,1.2386,1.2429,1.2474,1.2514,1.256,1.2582,1.2643,1.2599,1.2702,1.2706,1.2725,1.2737,1.2743,1.2759,1.2679,1.2679,1.2678,1.239,1.2412,1.2476,1.251,1.2552,1.2599,1.2635,1.2672,1.2683,1.2707,1.2728,1.2778,1.2792,1.2797,1.2814,1.2743,1.2743,1.2743,1.2743,1.2474,1.2515,1.2527,1.2593,1.2615,1.2671,1.2718,1.2724,1.2779,1.2765,1.2782,1.2764,1.2803,1.282,1.2744,1.2744,1.2744,1.2744,1.2744,1.2513,1.2536,1.2561,1.2626,1.2673,1.2707,1.2759,1.2778,1.2797,1.2814,1.2838,1.2838,1.2839,1.2824,1.2824,1.2825,1.2825,1.2825,1.2825,1.2543,1.2571,1.2612,1.2664,1.2694,1.2736,1.2783,1.2814,1.2852,1.2862,1.2862,1.287,1.2804,1.2786,1.2828,1.2827,1.2827,1.2827,1.2827,1.2619,1.2605,1.2668,1.2698,1.276,1.2805,1.2829,1.2889,1.2917,1.2942,1.2946,1.2894,1.2897,1.2892,1.2878,1.2941,1.2941,1.2941,1.2941,1.2651,1.2654,1.2723,1.277,1.2818,1.2845,1.2916,1.2953,1.299,1.3008,1.3002,1.2985,1.2979,1.2986,1.2979,1.2966,1.305,1.305,1.305,1.2698,1.2707,1.2763,1.2798,1.2848,1.289,1.2957,1.301,1.3048,1.3055,1.3023,1.3018,1.299,1.2981,1.2986,1.2975,1.2952,0,0]},{"header":{"parameterUnit":"m.s-1","parameterCategory":1,"la1":30.2992,"la2":30.254,"lo1":-89.0895,"lo2":-89.0443,"dy":0.0025,"dx":0.0025,"nx":19,"ny":19,"refTime":"2026-03-14T03:00:00:Z","depth":0,"parameterNumber":3,"parameterNumberName":"V-component_of_WINDS"},"data":[0,0,0,6.5002,6.5007,6.5263,6.5265,6.5566,6.5568,0,0,0,0,0,0,0,0,0,0,0,6.4912,6.4913,6.5001,6.5007,6.5263,6.5265,6.5565,6.5568,0,0,0,0,0,0,0,0,0,0,0,6.4911,6.4913,6.4915,6.5008,6.5263,6.5265,6.5565,6.538,0,0,0,0,0,0,0,0,0,0,6.5136,6.5039,6.4912,6.4915,6.501,6.5263,6.5265,6.5372,6.5392,6.5439,0,6.5479,0,6.5529,6.5587,6.5588,0,0,0,6.5017,6.5022,6.5105,6.4915,6.5012,6.5262,6.5151,6.5383,6.5406,6.5465,6.5484,6.5496,6.5534,6.5589,6.559,6.5836,6.5837,0,0,6.5003,6.495,6.5089,6.5119,6.508,6.5142,6.5158,6.5397,6.5413,6.5485,6.5503,6.5539,6.5591,6.5593,6.5836,6.5836,0,0,0,6.4956,6.4939,6.5016,6.5106,6.5154,6.5149,6.5168,6.5402,6.5432,6.5507,6.5542,6.5592,6.5596,6.5835,6.5836,6.5819,0,0,0,6.4948,6.4912,6.5009,6.4979,6.5149,6.5282,6.5167,6.5415,6.5444,6.5541,6.5592,6.5598,6.5834,6.5835,6.5818,6.5819,0,0,0,6.49,6.4906,6.4939,6.4976,6.5084,6.5279,6.5323,6.5423,6.5465,6.5588,6.5599,6.5834,6.5835,6.5817,6.5818,6.587,0,0,0,6.4832,6.4918,6.4938,6.5047,6.5082,6.5268,6.5322,6.5462,6.5566,6.5594,6.5834,6.5836,6.5817,6.5817,6.5868,6.5903,6.5913,0,0,6.4911,6.4925,6.4995,6.502,6.5189,6.5233,6.5399,6.5543,6.5602,6.5754,6.5761,6.5819,6.5818,6.5869,6.5986,6.5993,0,0,0,6.5001,6.505,6.5107,6.5204,6.5318,6.5416,6.5541,6.5595,6.5727,6.567,6.5853,6.5854,6.5886,6.5905,6.5911,6.5942,6.5842,6.5842,6.5842,6.5033,6.5108,6.5227,6.5333,6.5426,6.5556,6.5639,6.5733,6.5778,6.582,6.5865,6.5927,6.5947,6.5952,6.5984,6.589,6.589,6.589,6.589,6.5155,6.5236,6.5298,6.5435,6.5513,6.5629,6.5757,6.5786,6.5904,6.5898,6.593,6.5917,6.5958,6.5989,6.5889,6.5889,6.5889,6.5889,6.5889,6.5184,6.5236,6.5302,6.5453,6.556,6.5664,6.5776,6.5842,6.5904,6.5936,6.5991,6.5992,6.6,6.5958,6.5958,6.5958,6.5959,6.5959,6.5959,6.5187,6.5263,6.5351,6.5481,6.5554,6.5658,6.579,6.5863,6.596,6.5999,6.6,6.604,6.5949,6.5924,6.5963,6.5962,6.5961,6.5961,6.5961,6.5282,6.5272,6.5407,6.548,6.564,6.5743,6.5827,6.597,6.6039,6.6092,6.6128,6.6049,6.6068,6.6064,6.6044,6.6111,6.6111,6.6111,6.6111,6.5306,6.5324,6.5478,6.5591,6.5709,6.5799,6.5949,6.6053,6.6159,6.6206,6.6207,6.6186,6.6178,6.6202,6.6195,6.6177,6.6277,6.6277,6.6277,6.5369,6.5401,6.5516,6.5623,6.5753,6.5863,6.6006,6.6132,6.6249,6.6285,6.6245,6.6238,6.6206,6.6192,6.6224,6.6211,6.618,0,0]}]]